Date String (YYYY-MM-DD hh:mm:ss) UTC,Instrument flags,absolute air pressure of the measurement (hPa),sample flow rate (lpm),inlet stack bypass flow (lpm),air temperature of the measurement (°C),ambient temperature measured by the external sensor (°C),aerosol sample conditioner tube jacket temperature (°C),OPC LED temperature (°C),internal box temperature (°C),relative humidity of the measurement (%),span deviation,mass concentration of particles derived from Lorenz-Mie calculation of OPC scattering (μg/m³),mass concentration of particles derived from Lorenz-Mie calculation of OPC scattering (μg/m³),mass concentration of particles derived from Lorenz-Mie calculation of OPC scattering (μg/m³)
DateTimeUTC,F1_M11,P_M11,Q1_M11,Q2_M11,T1_M11,T2_M11,T3_M11,T4_M11,T5_M11,U1_M11,ZSPAN_M11,X0_M11,X2_M11,X1_M11
2023-08-22 19:00:00,SystemResetWarning,0836.1,5.00,000.00,027.4,025.7,000.0,035.7,029.2,23.6,0001.2,0022.37,0009.62,0007.78
2023-08-22 19:01:00,SystemResetWarning,0836.1,5.00,000.00,027.5,026.1,000.0,035.7,029.3,24.3,0001.1,0021.06,0009.60,0007.75
2023-08-22 19:02:00,SystemResetWarning,0836.0,5.00,000.00,027.6,026.1,000.0,035.7,029.4,24.7,0000.8,0021.07,0009.50,0007.69
2023-08-22 19:03:00,SystemResetWarning,0835.9,4.98,000.00,027.5,024.9,000.0,035.6,029.1,24.8,0000.7,0020.19,0009.42,0007.65
2023-08-22 19:04:00,SystemResetWarning,0835.9,5.01,000.00,027.5,024.2,000.0,035.6,028.9,24.3,0000.3,0020.06,0009.38,0007.61
2023-08-22 19:05:00,SystemResetWarning,0835.9,5.01,000.00,027.4,024.6,000.0,035.6,029.0,24.7,0000.4,0019.59,0009.29,0007.54
2023-08-22 19:06:00,SystemResetWarning,0835.9,4.99,000.00,027.4,025.0,000.0,035.6,029.1,25.1,0000.1,0020.45,0009.22,0007.49
2023-08-22 19:07:00,SystemResetWarning,0835.9,5.00,000.00,027.5,025.4,000.0,035.7,029.2,24.6,0000.1,0021.52,0009.18,0007.44
2023-08-22 19:08:00,SystemResetWarning,0835.9,5.01,000.00,027.5,025.8,000.0,035.7,029.3,24.9,0000.6,0021.12,0009.12,0007.42
2023-08-22 19:09:00,SystemResetWarning,0835.9,5.00,000.00,027.6,025.9,000.0,035.7,029.3,25.1,0000.6,0022.19,0009.17,0007.39
2023-08-22 19:10:00,SystemResetWarning,0835.8,4.98,000.00,027.5,024.6,000.0,035.6,029.0,25.8,0000.7,0023.02,0009.22,0007.37
2023-08-22 19:11:00,SystemResetWarning,0835.8,5.01,000.00,027.4,024.1,000.0,035.6,028.9,26.6,0000.7,0024.00,0009.20,0007.36
2023-08-22 19:12:00,SystemResetWarning,0835.8,5.02,000.00,027.4,024.5,000.0,035.6,028.9,26.5,0000.9,0024.70,0009.25,0007.35
2023-08-22 19:13:00,SystemResetWarning,0835.8,4.99,000.00,027.4,024.8,000.0,035.6,029.0,26.9,0001.3,0024.70,0009.31,0007.36
2023-08-22 19:14:00,SystemResetWarning,0835.8,5.00,000.00,027.4,025.3,000.0,035.7,029.1,27.0,0001.7,0025.45,0009.31,0007.36
2023-08-22 19:15:00,SystemResetWarning,0835.8,5.01,000.00,027.5,025.7,000.0,035.7,029.3,27.4,0002.2,0025.23,0009.34,0007.36
2023-08-22 19:16:00,SystemResetWarning,0835.8,5.00,000.00,027.5,025.7,000.0,035.7,029.3,27.7,0002.1,0025.77,0009.33,0007.36
2023-08-22 19:17:00,SystemResetWarning,0835.7,4.98,000.00,027.5,024.5,000.0,035.6,028.9,27.9,0002.5,0024.70,0009.33,0007.37
2023-08-22 19:18:00,SystemResetWarning,0835.6,5.01,000.00,027.4,024.0,000.0,035.5,028.8,28.3,0002.7,0023.48,0009.33,0007.38
2023-08-22 19:19:00,SystemResetWarning,0835.7,5.01,000.00,027.3,024.4,000.0,035.6,028.8,28.5,0002.5,0023.71,0009.36,0007.38
2023-08-22 19:20:00,SystemResetWarning,0835.6,5.00,000.00,027.3,024.8,000.0,035.6,028.9,27.8,0002.4,0024.38,0009.39,0007.38
2023-08-22 19:21:00,SystemResetWarning,0835.7,5.00,000.00,027.4,025.3,000.0,035.7,029.1,27.4,0002.2,0024.01,0009.41,0007.40
2023-08-22 19:22:00,SystemResetWarning,0835.7,5.00,000.00,027.4,025.7,000.0,035.7,029.2,26.7,0002.2,0023.54,0009.43,0007.40
2023-08-22 19:23:00,SystemResetWarning,0835.7,4.99,000.00,027.5,025.6,000.0,035.7,029.2,25.8,0002.4,0023.69,0009.40,0007.41
2023-08-22 19:24:00,SystemResetWarning,0835.6,4.99,000.00,027.4,024.3,000.0,035.6,028.9,24.4,0002.3,0023.43,0009.43,0007.41
2023-08-22 19:25:00,SystemResetWarning,0835.7,5.01,000.00,027.4,024.0,000.0,035.5,028.8,23.9,0002.0,0023.28,0009.48,0007.43
2023-08-22 19:26:00,SystemResetWarning,0835.8,5.02,000.00,027.3,024.4,000.0,035.5,028.8,23.6,0001.5,0023.28,0009.47,0007.43
2023-08-22 19:27:00,SystemResetWarning,0835.8,4.99,000.00,027.3,024.8,000.0,035.6,028.9,23.7,0001.6,0022.88,0009.53,0007.44
2023-08-22 19:28:00,SystemResetWarning,0835.7,5.00,000.00,027.4,025.3,000.0,035.6,029.0,23.5,0001.8,0023.14,0009.55,0007.44
2023-08-22 19:29:00,SystemResetWarning,0835.7,5.01,000.00,027.4,025.7,000.0,035.7,029.2,24.2,0001.4,0024.21,0009.64,0007.44
2023-08-22 19:30:00,SystemResetWarning,0835.6,5.00,000.00,027.5,026.1,000.0,035.7,029.3,24.6,0001.3,0023.25,0009.66,0007.46
2023-08-22 19:31:00,SystemResetWarning,0835.6,4.99,000.00,027.5,026.0,000.0,035.7,029.3,25.5,0001.2,0022.42,0009.72,0007.50
2023-08-22 19:32:00,SystemResetWarning,0835.6,4.99,000.00,027.5,024.6,000.0,035.6,029.0,25.8,0001.1,0022.43,0009.67,0007.50
2023-08-22 19:33:00,SystemResetWarning,0835.7,5.01,000.00,027.4,024.2,000.0,035.5,028.9,25.0,0001.2,0023.29,0009.63,0007.50
2023-08-22 19:34:00,SystemResetWarning,0835.7,5.01,000.00,027.4,024.6,000.0,035.6,028.9,24.1,0001.3,0023.12,0009.57,0007.50
2023-08-22 19:35:00,SystemResetWarning,0835.6,5.00,000.00,027.4,025.0,000.0,035.6,029.0,24.2,0001.3,0023.34,0009.56,0007.51
2023-08-22 19:36:00,SystemResetWarning,0835.6,5.00,000.00,027.4,025.4,000.0,035.7,029.1,24.1,0001.5,0023.97,0009.56,0007.51
2023-08-22 19:37:00,SystemResetWarning,0835.7,5.00,000.00,027.5,025.8,000.0,035.7,029.3,24.6,0001.3,0024.59,0009.58,0007.54
2023-08-22 19:38:00,SystemResetWarning,0835.7,4.99,000.00,027.5,025.7,000.0,035.7,029.2,24.3,0001.4,0025.18,0009.63,0007.57
2023-08-22 19:39:00,SystemResetWarning,0835.6,4.99,000.00,027.5,024.3,000.0,035.6,028.9,23.6,0001.0,0025.92,0009.72,0007.63
2023-08-22 19:40:00,SystemResetWarning,0835.6,5.02,000.00,027.4,024.0,000.0,035.5,028.8,23.9,0001.3,0025.62,0009.73,0007.67
2023-08-22 19:41:00,SystemResetWarning,0835.6,5.01,000.00,027.4,024.5,000.0,035.6,028.9,23.8,0001.5,0025.60,0009.79,0007.71
2023-08-22 19:42:00,SystemResetWarning,0835.6,4.99,000.00,027.4,024.9,000.0,035.6,029.0,23.6,0001.3,0025.48,0009.81,0007.73
2023-08-22 19:43:00,SystemResetWarning,0835.6,5.00,000.00,027.4,025.3,000.0,035.6,029.1,24.0,0001.2,0025.17,0009.81,0007.76
2023-08-22 19:44:00,SystemResetWarning,0835.6,5.01,000.00,027.5,025.8,000.0,035.7,029.2,24.3,0001.4,0025.09,0009.92,0007.81
2023-08-22 19:45:00,SystemResetWarning,0835.6,5.00,000.00,027.5,026.0,000.0,035.7,029.3,24.3,0001.4,0025.10,0010.11,0007.89
2023-08-22 19:46:00,SystemResetWarning,0835.5,4.98,000.00,027.5,025.0,000.0,035.6,029.1,23.9,0001.0,0025.23,0010.18,0007.95
2023-08-22 19:47:00,SystemResetWarning,0835.5,5.02,000.00,027.4,024.1,000.0,035.6,028.9,24.1,0001.1,0024.70,0010.27,0008.00
2023-08-22 19:48:00,SystemResetWarning,0835.5,5.00,000.00,027.4,024.4,000.0,035.5,028.9,24.4,0001.6,0025.03,0010.35,0008.03
2023-08-22 19:49:00,SystemResetWarning,0835.5,5.00,000.00,027.4,024.8,000.0,035.6,028.9,24.4,0001.7,0026.30,0010.39,0008.05
2023-08-22 19:50:00,SystemResetWarning,0835.4,5.00,000.00,027.4,025.2,000.0,035.6,029.1,24.0,0002.0,0026.27,0010.33,0008.04
2023-08-22 19:51:00,SystemResetWarning,0835.6,5.00,000.00,027.5,025.7,000.0,035.7,029.2,24.4,0002.0,0025.96,0010.34,0008.04
2023-08-22 19:52:00,SystemResetWarning,0835.5,5.00,000.00,027.5,026.0,000.0,035.7,029.3,24.2,0001.8,0029.42,0010.35,0008.01
2023-08-22 19:53:00,SystemResetWarning,0835.5,4.98,000.00,027.5,024.9,000.0,035.6,029.1,24.8,0001.9,0029.31,0010.32,0007.99
2023-08-22 19:54:00,SystemResetWarning,0835.5,5.02,000.00,027.4,024.1,000.0,035.5,028.9,23.6,0002.3,0030.69,0010.31,0007.96
2023-08-22 19:55:00,SystemResetWarning,0835.5,5.00,000.00,027.4,024.4,000.0,035.5,028.9,23.6,0001.9,0030.61,0010.26,0007.94
2023-08-22 19:56:00,SystemResetWarning,0835.6,4.99,000.00,027.4,024.8,000.0,035.6,028.9,23.2,0001.6,0029.90,0010.10,0007.89
2023-08-22 19:57:00,SystemResetWarning,0835.5,5.00,000.00,027.4,025.3,000.0,035.6,029.1,23.0,0001.9,0029.21,0010.01,0007.85
2023-08-22 19:58:00,SystemResetWarning,0835.5,5.00,000.00,027.5,025.7,000.0,035.7,029.2,22.6,0002.0,0030.34,0009.94,0007.80
2023-08-22 19:59:00,SystemResetWarning,0835.5,5.02,000.00,027.5,026.1,000.0,035.7,029.4,23.2,0001.6,0030.52,0009.88,0007.76
